Location: Nashville
(36.1660°N, 86.7840°W)
Time: 20:20:47
(UTC-06:00)

Hubble Space Telescope - Visible Passes

Search period start: 30 November 2023 00:00
Search period end: 10 December 2023 00:00
Orbit: 519 x 523 km, 28.5° (Epoch: 30 November)

Date Brightness Start Highest point End Pass type
(mag) Time Alt. Az. Time Alt. Az. Time Alt. Az.
30 Nov 2.5 17:14:17 10° WSW 17:17:42 27° S 17:21:07 10° SE visible
30 Nov 3.1 18:55:17 10° WSW 18:57:24 17° SSW 18:57:24 17° SSW visible
01 Dec 2.6 16:57:54 10° WSW 17:01:17 26° S 17:04:40 10° SE visible
01 Dec 3.1 18:39:05 10° SW 18:41:32 16° SSW 18:42:14 15° S visible
02 Dec 3.3 18:22:58 10° SW 18:25:04 14° SSW 18:27:10 10° SSE visible
03 Dec 3.5 18:06:56 10° SW 18:08:36 12° SSW 18:10:15 10° S visible
04 Dec 3.7 17:51:15 10° SW 17:52:06 11° SSW 17:52:56 10° S visible
